Location: Gniezno
(52.5278°N, 17.6011°E)
Time: 22:56:47
(UTC+01:00)

ISS - Visible Passes

Search period start: 23 January 2019 00:00
Search period end: 02 February 2019 00:00
Orbit: 404 x 410 km, 51.6° (Epoch: 24 January)

Date Brightness Start Highest point End Pass type
(mag) Time Alt. Az. Time Alt. Az. Time Alt. Az.
23 Jan -1.3 18:40:15 10° SSW 18:41:05 14° S 18:41:05 14° S visible
24 Jan -1.6 17:49:58 10° S 17:51:33 13° SE 17:52:04 13° SE visible
24 Jan -0.8 19:24:20 10° SW 19:24:47 13° SW 19:24:47 13° SW visible
25 Jan -2.5 18:33:15 10° SW 18:35:41 30° S 18:35:41 30° S visible
26 Jan -2.2 17:42:21 10° SSW 17:45:01 23° SSE 17:46:30 17° ESE visible
26 Jan -1.4 19:17:54 10° WSW 19:19:14 22° WSW 19:19:14 22° WSW visible
27 Jan -3.5 18:26:37 10° WSW 18:29:50 50° SSE 18:30:00 49° SSE visible
28 Jan -2.9 17:35:26 10° SW 17:38:31 37° SSE 17:40:43 16° E visible
28 Jan -2.0 19:11:33 10° W 19:13:26 31° WSW 19:13:26 31° WSW visible
29 Jan -3.7 18:20:10 10° WSW 18:23:27 68° S 18:24:07 50° ESE visible
29 Jan -0.3 19:56:38 10° W 19:56:50 11° W 19:56:50 11° W visible
30 Jan -3.4 17:28:50 10° WSW 17:32:04 56° SSE 17:34:47 14° E visible
30 Jan -2.5 19:05:12 10° W 19:07:30 41° W 19:07:30 41° W visible
31 Jan -3.8 18:13:46 10° W 18:17:05 78° S 18:18:09 39° E visible
31 Jan -0.6 19:50:17 10° W 19:50:52 14° W 19:50:52 14° W visible
01 Feb -3.7 17:22:20 10° WSW 17:25:38 72° S 17:28:49 11° E visible
01 Feb -3.1 18:58:49 10° W 19:01:32 52° WSW 19:01:32 52° WSW visible
